Location: Little Italy
(37.8008°N, 122.4108°W)
Time: 08:22:28
(UTC+00:00)

SJ-12 - Pass Details

Date: 29 October 2020
Orbit: 567 x 586 km, 97.7° (Epoch: 02 December)

Event Time Altitude Azimuth Distance (km) Brightness Sun altitude
Rises 13:29:45 0° 7° (N) 2,805 7.4 -13.0°
Reaches altitude 10° 13:31:57 10° 3° (N) 1,898 6.5 -12.5°
Maximum altitude 13:35:58 56° 285° (WNW) 692 4.0 -11.7°
Drops below altitude 10° 13:39:56 10° 208° (SSW) 1,873 6.3 -11.0°
Sets 13:42:06 0° 203° (SSW) 2,764 7.3 -10.5°
